Regional Weather Roundup
Issued by NWS Albany, NY

Home | Current Version | Previous Version | Graphics & Text | Print | Product List | Glossary On
Versions: 1 2 3 4 5 6 7 8 9 10 11 12 13 14 15 16 17 18 19 20 21 22 23 24 25 26 27 28 29 30 31 32 33 34 35 36 37 38 39 40 41 42 43 44 45 46 47 48 49 50
250
ASUS41 KALY 241210
RWRALY

NEW YORK STATE HOURLY WEATHER ROUNDUP
NATIONAL WEATHER SERVICE ALBANY NY
800 AM EDT FRI MAR 24 2017

NOTE: "FAIR" INDICATES FEW OR NO CLOUDS BELOW 12,000 FEET WITH NO
SIGNIFICANT WEATHER AND/OR NO OBSTRUCTIONS TO VISIBILITY.

NYZ032-033-038>043-046>054-057>066-NYZ062>081-082-084-241300-
EAST


CITY           SKY/WX    TMP DP  RH WIND       PRES   REMARKS
ALBANY         CLOUDY    34   9  35 S12G18    30.35F WCI  25
GLENS FALLS    CLOUDY    28  14  55 E5        30.35F WCI  23
POUGHKEEPSIE   PTSUNNY   34  15  46 S5        30.42F WCI  30
NEWBURGH       CLOUDY    34  12  40 CALM      30.42F
MONTGOMERY     CLOUDY    30  19  63 CALM      30.40F
WHITE PLAINS   PTSUNNY   34  23  64 S6        30.43F WCI  29
ISLIP          CLOUDY    38  32  79 S9        30.47F WCI  31
NEW YORK CITY  CLOUDY    39  25  57 SW9       30.47F WCI  33
CENTRAL PARK   CLOUDY    38  21  50 VRB6G18   30.48F WCI  33
$$

NYZ005>009-017-018-044>046-055-056-241300-
CENTRAL


CITY           SKY/WX    TMP DP  RH WIND       PRES   REMARKS
FULTON         LGT RAIN  35  18  49 SE5       30.21S WCI  31
SYRACUSE       CLOUDY    37  16  42 S8        30.21F WCI  31
ROME           CLOUDY    31  15  52 E8        30.27F WCI  23
ELMIRA         LGT RAIN  35  26  69 SE5       30.25F WCI  31
BINGHAMTON     MIX PCPN  32  15  49 S8        30.26R WCI  25
MONTICELLO     CLOUDY    28  10  47 CALM      30.36R
$$

NYZ026>034-041>043-087-241300-
NORTH


CITY           SKY/WX    TMP DP  RH WIND       PRES   REMARKS
WATERTOWN      CLOUDY    38  15  39 S10G18    30.17F WCI  31
FORT DRUM      NOT AVBL
MASSENA        LGT SNOW  27  25  92 NE7       30.21F FOG     WCI  19
SARANAC LAKE   LGT SNOW  26  25  96 S5        30.15F VSB 1   WCI  20
PLATTSBURGH    CLOUDY    30  12  47 S5        30.28F WCI  25
$$

NYZ001>004-010>016-019>021-085-241300-
WEST


CITY           SKY/WX    TMP DP  RH WIND       PRES   REMARKS
NIAGARA FALLS  CLOUDY    37  33  85 S12       30.10F WCI  29
BUFFALO        RAIN      38  34  85 SE7       30.11F FOG     WCI  33
DUNKIRK        LGT RAIN  43  36  76 S21G30    30.07F
JAMESTOWN      CLOUDY    37  30  75 S13G20    30.11S WCI  29
WELLSVILLE     CLOUDY    35  28  75 S12G18    30.16F HAZE    WCI  27
ROCHESTER      RAIN      36  30  79 S9        30.16F WCI  29
PENN YAN       LGT RAIN  35  23  61 S9        30.21F WCI  28
$$

             KEY
       WCI = WIND CHILL INDEX
       VSB = VISIBILITY
       HX  = HEAT INDEX
$$




USA.gov is the U.S. government's official web portal to all federal, state and local government web resources and services.